Waverly, WV

5:28 AM EST on February 14, 2016 (GMT -0500)
Wood County Wilson | | Change Station
CLOSE
Current Station
Airport
Location: Parkersburg,
Elevation: 860 ft
Nearby Weather Stations

Elev 860 ft 39.35 °N, 81.44 °W | Updated 35 minutes ago

Clear
Clear
0 °F
Feels Like 0 °F
N
0
Wind Variable Wind from North

Today
High -- | Low -- °F
--% Chance of Precip.
Yesterday
High -- | Low -- °F
Precip. -- in
Pressure 30.55 in
Visibility 10.0 miles
Clouds Clear
Dew Point -5 °F
Humidity 79%
Rainfall 0.00 in
Snow Depth Not available.
7:19 AM 6:00 PM
Waxing Crescent, 40% visible
METAR KPKB 140953Z AUTO 00000KT 10SM CLR M18/M21 A3050 RMK AO2 SLP345 T11781206 TSNO
Pressure 30.55 in
Visibility 10.0 miles
Clouds Clear
Dew Point -5 °F
Humidity 79%
Rainfall 0.00 in
Snow Depth Not available.
7:19 AM 6:00 PM
Waxing Crescent, 40% visible
METAR KPKB 140953Z AUTO 00000KT 10SM CLR M18/M21 A3050 RMK AO2 SLP345 T11781206 TSNO

10-Day Weather Forecast

Almanac

Astronomy

Feb. 14, 2016 Rise Set
Actual Time
Civil Twilight
Nautical Twilight
Astronomical Twilight
Moon
Length of Visible Light
Length of Day
Tomorrow will be .
, % of the Moon is Illuminated

Today's Extremes

State Highs State Lows

Community

WunderPhotos

Upload Photos

1,892,765 photos uploaded!

WunderBlog® & News

Nearby

Air Quality

  Air Quality AQ Index Pollutant
Not available.

Snow Depth

Station Depth Elevation

Earthquake Activity

City Distance Mag. Time & Date
Minimum magnitude displayed is 2.5.

Coastal Water Temperatures

Place Temperature

Stations

Nearby Weather Stations

Station Location Temp. Windchill Dew Point Humidity Wind Precip. Elev Updated Type
                   

Watches & Warnings

There are currently no watches in effect.